User: anonymous   Login
Location: Unspecified
(0.0000°N, 0.0000°E)
Time: 18:51:33
(UTC+00:00)
Language:

OBJECT PK - Orbit

View from above orbital plane
View from above orbital plane
View from above satellite
View from above satellite

Ground track
Ground track

The orbit data is extracted from the following two-line orbital elements,

1 43598U 98067PK  18350.90449250 +.00008877 +00000-0 +12701-3 0  9993
2 43598 051.6364 186.6056 0004866 149.2730 210.8548 15.57044211019174
Epoch (UTC): 16 December 2018 21:42:28
Eccentricity: 0.0004866
inclination: 51.6364°
perigee height: 393 km
apogee height: 399 km
right ascension of ascending node: 186.6056°
argument of perigee: 149.2730°
revolutions per day: 15.57044211
mean anomaly at epoch: 210.8548°
orbit number at epoch: 1917

The dashed part of the orbit path shows where the satellite is in the earth's shadow,  

DLR